TimeEST,TemperatureF,Dew PointF,Humidity,Sea Level PressureIn,VisibilityMPH,Wind Direction,Wind SpeedMPH,Gust SpeedMPH,PrecipitationIn,Events,Conditions,WindDirDegrees,DateUTC
12:54 AM,43.0,39.9,89,30.14,0.5,SSW,4.6,-,N/A,Fog,Fog,200,2013-01-13 05:54:00
1:49 AM,42.8,39.2,87,30.15,0.8,SSW,3.5,-,N/A,,Mist,200,2013-01-13 06:49:00
1:54 AM,42.1,39.9,92,30.16,0.8,South,3.5,-,N/A,,Mist,190,2013-01-13 06:54:00
2:17 AM,42.8,39.2,87,30.15,0.5,SSW,5.8,-,N/A,Fog,Fog,200,2013-01-13 07:17:00
2:51 AM,42.8,39.2,87,30.14,1.0,SSW,3.5,-,N/A,,Mist,200,2013-01-13 07:51:00
2:54 AM,42.1,39.9,92,30.14,1.0,SSW,4.6,-,N/A,,Mist,200,2013-01-13 07:54:00
3:10 AM,42.8,39.2,87,30.14,2.5,SSW,5.8,-,N/A,,Overcast,210,2013-01-13 08:10:00
3:25 AM,42.8,39.2,87,30.14,1.5,SSW,5.8,-,N/A,,Overcast,210,2013-01-13 08:25:00
3:54 AM,42.1,39.9,92,30.13,2.0,SSW,4.6,-,N/A,,Overcast,210,2013-01-13 08:54:00
4:54 AM,43.0,39.9,89,30.13,4.0,Calm,Calm,-,N/A,,Overcast,0,2013-01-13 09:54:00
5:18 AM,42.8,39.2,87,30.12,1.8,Calm,Calm,-,N/A,,Overcast,0,2013-01-13 10:18:00
5:42 AM,42.8,39.2,87,30.13,0.8,Calm,Calm,-,N/A,,Mist,0,2013-01-13 10:42:00
5:52 AM,42.8,39.2,87,30.12,0.5,Calm,Calm,-,N/A,Fog,Fog,0,2013-01-13 10:52:00
5:54 AM,42.1,39.9,92,30.12,0.5,Calm,Calm,-,N/A,Fog,Fog,0,2013-01-13 10:54:00
6:08 AM,42.8,39.2,87,30.12,0.8,Calm,Calm,-,N/A,,Overcast,0,2013-01-13 11:08:00
6:33 AM,42.8,39.2,87,30.12,1.2,Calm,Calm,-,N/A,,Overcast,0,2013-01-13 11:33:00
6:54 AM,43.0,39.9,89,30.13,1.2,Calm,Calm,-,N/A,,Overcast,0,2013-01-13 11:54:00
7:27 AM,42.8,41.0,93,30.14,0.5,Calm,Calm,-,N/A,Fog,Fog,0,2013-01-13 12:27:00
7:54 AM,43.0,41.0,93,30.14,0.2,Calm,Calm,-,N/A,Fog,Fog,0,2013-01-13 12:54:00
7:59 AM,44.6,41.0,87,30.15,1.0,SSW,3.5,-,N/A,,Mist,200,2013-01-13 12:59:00
8:36 AM,44.6,41.0,87,30.15,0.8,South,4.6,-,N/A,,Overcast,190,2013-01-13 13:36:00
8:46 AM,44.6,41.0,87,30.16,1.2,SW,5.8,-,N/A,,Overcast,220,2013-01-13 13:46:00
8:54 AM,44.1,42.1,93,30.17,1.0,SSW,3.5,-,N/A,,Overcast,210,2013-01-13 13:54:00
9:33 AM,44.6,42.8,93,30.15,3.0,SSW,4.6,-,N/A,,Overcast,200,2013-01-13 14:33:00
9:54 AM,45.0,43.0,93,30.16,2.5,SSW,3.5,-,N/A,,Overcast,210,2013-01-13 14:54:00
10:39 AM,46.4,42.8,87,30.15,1.8,SW,8.1,-,N/A,,Overcast,230,2013-01-13 15:39:00
10:54 AM,46.0,43.0,89,30.15,1.8,SW,4.6,-,N/A,,Overcast,220,2013-01-13 15:54:00
11:03 AM,46.4,44.6,93,30.14,2.5,SW,4.6,-,N/A,,Overcast,230,2013-01-13 16:03:00
11:28 AM,46.4,44.6,93,30.13,3.0,SW,4.6,-,N/A,,Overcast,220,2013-01-13 16:28:00
11:54 AM,48.0,45.0,89,30.12,4.0,SSW,3.5,-,N/A,,Overcast,200,2013-01-13 16:54:00
12:54 PM,48.9,45.0,86,30.09,10.0,SW,10.4,-,N/A,,Overcast,220,2013-01-13 17:54:00
1:54 PM,50.0,46.0,86,30.09,7.0,SW,9.2,-,N/A,,Overcast,220,2013-01-13 18:54:00
2:54 PM,50.0,46.0,86,30.07,5.0,Calm,Calm,-,N/A,,Overcast,0,2013-01-13 19:54:00
3:54 PM,51.1,46.9,86,30.05,5.0,Calm,Calm,-,N/A,,Overcast,0,2013-01-13 20:54:00
4:31 PM,51.8,46.4,82,30.04,5.0,South,3.5,-,N/A,,Overcast,190,2013-01-13 21:31:00
4:54 PM,51.1,46.9,86,30.03,8.0,South,8.1,-,N/A,,Overcast,190,2013-01-13 21:54:00
5:54 PM,51.1,46.9,86,30.02,9.0,SW,3.5,-,N/A,,Overcast,220,2013-01-13 22:54:00
6:28 PM,51.8,46.4,82,30.01,9.0,SSW,5.8,-,N/A,,Scattered Clouds,210,2013-01-13 23:28:00
6:54 PM,50.0,46.9,89,30.02,8.0,SW,5.8,-,N/A,,Partly Cloudy,220,2013-01-13 23:54:00
7:06 PM,51.8,46.4,82,30.02,9.0,WSW,5.8,-,N/A,,Mostly Cloudy,240,2013-01-14 00:06:00
7:23 PM,51.8,46.4,82,30.02,10.0,SW,6.9,-,N/A,,Overcast,230,2013-01-14 00:23:00
7:54 PM,51.1,46.9,86,30.03,10.0,SW,9.2,-,N/A,,Overcast,220,2013-01-14 00:54:00
8:54 PM,51.1,46.0,83,30.01,10.0,SSW,12.7,-,N/A,,Overcast,210,2013-01-14 01:54:00
9:54 PM,52.0,46.9,83,30.01,10.0,SW,8.1,-,N/A,,Overcast,220,2013-01-14 02:54:00
10:26 PM,51.8,46.4,82,30.00,10.0,SSW,6.9,-,N/A,,Overcast,210,2013-01-14 03:26:00
10:54 PM,52.0,46.9,83,29.99,10.0,SSW,5.8,-,N/A,,Overcast,200,2013-01-14 03:54:00
11:54 PM,52.0,46.9,83,30.00,10.0,SW,6.9,-,N/A,,Overcast,220,2013-01-14 04:54:00